Wise, VA

3:18 AM EST on December 13, 2017 (GMT -0500)
Lonesome Pine

Weather History for KLNP - October, 2010

Change the Weather History Date:

Saturday, October 16, 2010

  Actual Average Record
Temperature  
Mean Temperature 50 °F -  
Max Temperature 62 °F 61 °F 77 °F (1998)
Min Temperature 37 °F 43 °F 37 °F (1997)
Degree Days  
Heating Degree Days 16    
Moisture  
Dew Point 36 °F    
Average Humidity 66    
Maximum Humidity 93    
Minimum Humidity 36    
Precipitation  
Precipitation 0.00 in - - ()
Sea Level Pressure  
Sea Level Pressure 30.16 in    
Wind  
Wind Speed 3 mph (NW)    
Max Wind Speed 8 mph    
Max Gust Speed -    
Visibility 10 miles    
Events      
Averages and records for this station are not official NWS values.
T = Trace of Precipitation, MM = Missing Value Source: NWS Daily Summary

Daily Weather History Graph

Daily Weather History Graph

Search for Another Location

Airport or City:

Trip Planner

Search our weather history database for the weather conditions in past years. The results will help you decide how hot, cold, wet, or windy it might be!

Date:

Astronomy

Oct. 16, 2010 Rise Set
Actual Time 7:38 AM EDT 6:52 PM EDT
Civil Twilight 7:12 AM EDT 7:18 PM EDT
Nautical Twilight 6:42 AM EDT 7:48 PM EDT
Astronomical Twilight 6:12 AM EDT 8:18 PM EDT
Moon 3:36 PM EDT (10/16) 1:39 AM EDT (10/16)
Length of Visible Light 12h 05m
Length of Day
11h 13m
Waxing Gibbous, 67% of the Moon is Illuminated
Oct 16
Waxing Gibbous
Oct 22
Full
Oct 30
Last Quarter
Nov 6
New
Nov 13
First Quarter

Hourly Weather History & Observations

Time (EDT) Temp. Windchill Dew Point Humidity Pressure Visibility Wind Dir Wind Speed Gust Speed Precip Events Conditions
12:00 AM 48.2 °F - 37.4 °F 66% 30.10 in 10.0 mi NNW 4.6 mph - N/A   Clear
12:20 AM 46.4 °F 42.9 °F 37.4 °F 71% 30.09 in 10.0 mi NNW 6.9 mph - N/A   Clear
12:40 AM 46.4 °F 44.3 °F 37.4 °F 71% 30.09 in 10.0 mi NW 4.6 mph - N/A   Clear
1:00 AM 46.4 °F 43.5 °F 37.4 °F 71% 30.09 in 10.0 mi NNW 5.8 mph - N/A   Clear
1:20 AM 46.4 °F 44.3 °F 37.4 °F 71% 30.09 in 10.0 mi NNW 4.6 mph - N/A   Clear
1:40 AM 46.4 °F - 37.4 °F 71% 30.10 in 10.0 mi Calm Calm - N/A   Clear
2:00 AM 46.4 °F - 37.4 °F 71% 30.10 in 10.0 mi Calm Calm - N/A   Clear
2:20 AM 46.4 °F - 37.4 °F 71% 30.10 in 10.0 mi Calm Calm - N/A   Clear
2:40 AM 44.6 °F 43.1 °F 37.4 °F 76% 30.10 in 10.0 mi NW 3.5 mph - N/A   Clear
3:00 AM 44.6 °F 42.2 °F 37.4 °F 76% 30.10 in 10.0 mi NW 4.6 mph - N/A   Clear
3:20 AM 44.6 °F 43.1 °F 37.4 °F 76% 30.10 in 10.0 mi NW 3.5 mph - N/A   Clear
3:40 AM 44.6 °F 43.1 °F 37.4 °F 76% 30.10 in 10.0 mi WNW 3.5 mph - N/A   Clear
4:00 AM 39.2 °F - 35.6 °F 87% 30.11 in 10.0 mi Calm Calm - N/A   Unknown
4:20 AM 39.2 °F 37.0 °F 35.6 °F 87% 30.11 in 10.0 mi SSW 3.5 mph - N/A   Clear
4:40 AM 39.2 °F - 37.4 °F 93% 30.11 in 10.0 mi Calm Calm - N/A   Clear
5:00 AM 41.0 °F - 35.6 °F 81% 30.12 in 10.0 mi Calm Calm - N/A   Clear
5:20 AM 39.2 °F - 37.4 °F 93% 30.13 in 10.0 mi Calm Calm - N/A   Clear
5:40 AM 39.2 °F - 37.4 °F 93% 30.14 in 10.0 mi Calm Calm - N/A   Clear
6:00 AM 39.2 °F - 37.4 °F 93% 30.14 in 10.0 mi Calm Calm - N/A   Clear
6:20 AM 39.2 °F - 35.6 °F 87% 30.15 in 10.0 mi Calm Calm - N/A   Clear
6:40 AM 39.2 °F - 37.4 °F 93% 30.15 in 10.0 mi Calm Calm - N/A   Clear
7:00 AM 39.2 °F - 37.4 °F 93% 30.16 in 10.0 mi Calm Calm - N/A   Clear
7:20 AM 39.2 °F - 37.4 °F 93% 30.16 in 10.0 mi Calm Calm - N/A   Clear
7:40 AM 37.4 °F - 35.6 °F 93% 30.17 in 10.0 mi Calm Calm - N/A   Clear
8:00 AM 39.2 °F - 37.4 °F 93% 30.17 in 10.0 mi Calm Calm - N/A   Clear
8:20 AM 39.2 °F - 37.4 °F 93% 30.18 in 10.0 mi Calm Calm - N/A   Clear
8:40 AM 41.0 °F - 37.4 °F 87% 30.19 in 10.0 mi Calm Calm - N/A   Clear
9:00 AM 44.6 °F - 39.2 °F 81% 30.20 in 10.0 mi Calm Calm - N/A   Clear
9:20 AM 46.4 °F 45.2 °F 37.4 °F 71% 30.21 in 10.0 mi WSW 3.5 mph - N/A   Clear
9:40 AM 48.2 °F - 39.2 °F 71% 30.21 in 10.0 mi Calm Calm - N/A   Clear
10:00 AM 50.0 °F - 37.4 °F 62% 30.22 in 10.0 mi Calm Calm - N/A   Clear
10:20 AM 51.8 °F - 37.4 °F 58% 30.22 in 10.0 mi NNW 4.6 mph - N/A   Clear
10:40 AM 51.8 °F - 35.6 °F 54% 30.22 in 10.0 mi WNW 5.8 mph - N/A   Clear
11:00 AM 53.6 °F - 35.6 °F 51% 30.23 in 10.0 mi NNW 5.8 mph - N/A   Clear
11:20 AM 53.6 °F - 35.6 °F 51% 30.22 in 10.0 mi NW 6.9 mph - N/A   Unknown
11:40 AM 55.4 °F - 35.6 °F 47% 30.23 in 10.0 mi NW 3.5 mph - N/A   Clear
12:00 PM 55.4 °F - 35.6 °F 47% 30.23 in 10.0 mi North 5.8 mph - N/A   Clear
12:20 PM 55.4 °F - 35.6 °F 47% 30.22 in 10.0 mi North 3.5 mph - N/A   Clear
12:40 PM 57.2 °F - 37.4 °F 48% 30.22 in 10.0 mi NW 5.8 mph - N/A   Clear
1:00 PM 57.2 °F - 35.6 °F 44% 30.21 in 10.0 mi North 8.1 mph - N/A   Clear
1:20 PM 59.0 °F - 33.8 °F 39% 30.21 in 10.0 mi NW 6.9 mph - N/A   Clear
1:40 PM 59.0 °F - 33.8 °F 39% 30.20 in 10.0 mi West 8.1 mph - N/A   Clear
2:00 PM 59.0 °F - 33.8 °F 39% 30.20 in 10.0 mi Calm Calm - N/A   Clear
2:20 PM 59.0 °F - 35.6 °F 42% 30.18 in 10.0 mi NNW 5.8 mph - N/A   Clear
2:40 PM 60.8 °F - 35.6 °F 39% 30.18 in 10.0 mi North 8.1 mph - N/A   Clear
3:00 PM 60.8 °F - 33.8 °F 36% 30.18 in 10.0 mi West 5.8 mph - N/A   Clear
3:20 PM 60.8 °F - 35.6 °F 39% 30.17 in 10.0 mi NNE 4.6 mph - N/A   Clear
4:00 PM 62.6 °F - 35.6 °F 37% 30.17 in 10.0 mi NW 8.1 mph - N/A   Clear
4:20 PM 62.6 °F - 35.6 °F 37% 30.17 in 10.0 mi West 8.1 mph - N/A   Clear
4:40 PM 62.6 °F - 35.6 °F 37% 30.17 in 10.0 mi North 4.6 mph - N/A   Clear
5:00 PM 62.6 °F - 35.6 °F 37% 30.17 in 10.0 mi WNW 6.9 mph - N/A   Clear
5:20 PM 60.8 °F - 35.6 °F 39% 30.17 in 10.0 mi NW 5.8 mph - N/A   Clear
5:40 PM 60.8 °F - 35.6 °F 39% 30.16 in 10.0 mi West 5.8 mph - N/A   Clear
6:00 PM 60.8 °F - 35.6 °F 39% 30.16 in 10.0 mi West 3.5 mph - N/A   Clear
6:20 PM 59.0 °F - 35.6 °F 42% 30.15 in 10.0 mi Calm Calm - N/A   Clear
6:40 PM 57.2 °F - 33.8 °F 41% 30.16 in 10.0 mi Calm Calm - N/A   Clear
7:00 PM 55.4 °F - 35.6 °F 47% 30.16 in 10.0 mi Calm Calm - N/A   Clear
7:20 PM 53.6 °F - 35.6 °F 51% 30.16 in 10.0 mi Calm Calm - N/A   Clear
7:40 PM 53.6 °F - 35.6 °F 51% 30.17 in 10.0 mi Calm Calm - N/A   Clear
8:00 PM 53.6 °F - 35.6 °F 51% 30.17 in 10.0 mi Calm Calm - N/A   Clear
8:20 PM 53.6 °F - 35.6 °F 51% 30.17 in 10.0 mi Calm Calm - N/A   Clear
8:40 PM 53.6 °F - 35.6 °F 51% 30.17 in 10.0 mi Calm Calm - N/A   Clear
9:00 PM 48.2 °F - 35.6 °F 62% 30.17 in 10.0 mi Calm Calm - N/A   Clear
9:20 PM 50.0 °F - 35.6 °F 58% 30.16 in 10.0 mi Calm Calm - N/A   Clear
9:40 PM 48.2 °F - 35.6 °F 62% 30.17 in 10.0 mi Calm Calm - N/A   Clear
10:00 PM 46.4 °F 45.2 °F 35.6 °F 66% 30.16 in 10.0 mi South 3.5 mph - N/A   Clear
10:20 PM 46.4 °F 45.2 °F 35.6 °F 66% 30.17 in 10.0 mi South 3.5 mph - N/A   Clear
10:40 PM 48.2 °F - 35.6 °F 62% 30.17 in 10.0 mi Calm Calm - N/A   Clear
11:00 PM 48.2 °F - 35.6 °F 62% 30.18 in 10.0 mi Calm Calm - N/A   Clear
11:20 PM 50.0 °F - 35.6 °F 58% 30.18 in 10.0 mi Calm Calm - N/A   Clear
11:40 PM 48.2 °F - 35.6 °F 62% 30.19 in 10.0 mi Calm Calm - N/A   Clear